sat.trackr.live / text

‹ back to catalog

COSMOS 2500 (755)

NORAD 40001 · 2014-032A

PAYLOAD ACTIVE UNKNOWN

§ Identity

Operator
Country
CIS
Launch date
2014-06-14
Launch site
PLMSC
Launch vehicle
Mass (kg)
RCS (m²)
11.32

Purposes: nav

External: N2YO · Heavens-Above · Gunter

§ Orbital elements

Epoch: 2026-05-23T04:02:15.554976Z

Period
675.72 min
Inclination
65.2477°
Eccentricity
0.0006530
Mean motion
2.13105757 rev/d
Perigee alt
19,112.9 km
Apogee alt
19,146.2 km
Semi-major
25,507.7 km
B*
0.0000e+0
RAAN
314.5351°
Arg perigee
181.5135°
Mean anomaly
178.4814°
Rev number
9,292

§ Raw data

COSMOS 2500 (755)1 40001U 14032A   26143.16823559 -.00000040  00000+0  00000+0 0  99932 40001  65.2477 314.5351 0006530 181.5135 178.4814  2.13105757 92924

JSON: /api/v1/satellites/40001 · /tle

For live sub-satellite position, see the globe view (requires WebGL).

§ Visibility from observer

Set your observer location to see the next 7 days of passes ≥ 10°. The values pass through the URL so the page stays shareable.

No JS? Fill the form by hand. The geolocation button needs JavaScript.